Theta_e
308 307 308 308 307 307 307 307 307 307 307 307 308 308 308 309 309 308 305 307 304 305 310 313 313 312 312 312 308 305 308 308 308 309 310 310 311 312 314 316 340 340 348 349 351
307 307 307 307 306 306 306 306 307 307 307 307 307 308 308 308 309 307 308 308 313 311 313 313 312 310 309 312 311 306 304 307 307 307 310 311 312 314 319 323 355 346 348 350 352
307 307 307 306 307 307 307 307 307 308 307 307 307 307 308 308 307 306 315 315 315 314 315 313 313 311 311 310 312 309 307 307 309 311 311 312 313 314 315 317 352 348 350 350 351
305 306 306 307 307 307 307 307 307 308 308 307 307 307 308 309 308 310 316 315 310 313 316 314 312 309 309 312 310 313 310 310 310 311 310 312 310 312 313 314 316 332 347 350 351
306 306 307 307 307 307 307 307 307 308 308 308 307 307 308 309 307 308 309 311 311 315 316 313 310 307 309 309 309 311 313 314 314 313 310 309 310 310 311 312 313 313 346 348 349
306 306 306 307 307 308 308 308 308 308 308 308 307 308 309 310 309 308 308 309 309 309 313 309 308 306 308 309 310 310 313 313 311 313 313 311 311 311 312 312 313 318 343 347 348
306 306 306 307 307 308 309 310 310 309 309 308 308 309 310 310 309 308 308 308 308 308 307 308 310 309 307 313 312 315 316 313 312 312 314 311 311 312 312 311 312 315 346 346 346
306 306 306 307 308 309 310 309 310 310 310 308 308 309 310 309 308 308 309 309 309 308 308 308 307 308 312 312 312 317 314 313 312 313 314 311 311 310 310 311 313 313 342 346 345
306 306 307 307 309 311 312 311 310 309 309 308 309 308 306 308 308 309 310 308 308 308 308 308 308 311 313 310 310 312 316 314 315 312 315 312 312 311 310 310 312 313 329 346 346
307 307 307 307 309 310 312 311 310 310 309 309 309 308 307 310 309 309 310 309 308 307 306 307 307 311 309 308 311 315 317 318 315 314 315 312 312 310 311 310 312 320 342 348 348
306 307 306 308 308 311 312 310 307 307 310 309 309 309 309 309 309 310 309 309 307 305 307 305 306 310 311 311 312 316 316 318 318 318 313 316 312 310 312 314 326 344 347 348 349
307 307 307 308 309 312 312 309 309 309 309 307 307 308 308 308 310 309 310 308 307 307 306 305 307 307 310 312 314 315 317 316 317 318 318 314 311 313 311 312 339 345 347 344 344
307 308 309 309 309 312 311 311 309 309 308 308 308 308 308 308 310 310 308 307 308 308 308 306 306 306 308 311 314 313 316 317 319 319 319 316 311 312 311 311 328 344 344 343 346
307 309 311 311 310 310 311 311 310 309 306 313 312 312 310 309 310 309 309 308 309 309 308 308 307 308 308 310 312 313 311 314 317 320 323 315 313 311 311 311 325 340 341 343 345
307 309 311 311 311 309 312 310 309 306 312 314 315 313 313 313 312 313 309 309 310 311 310 308 309 309 309 309 310 311 310 313 315 320 322 319 312 313 311 312 313 340 341 342 342
307 310 313 312 311 310 311 309 307 309 314 316 314 316 315 314 313 313 314 310 309 312 311 310 310 310 308 308 309 310 311 314 317 322 328 320 311 313 312 313 311 338 340 340 341
309 311 312 313 312 311 311 306 309 317 316 317 318 316 315 314 315 314 316 312 314 315 313 311 311 310 310 310 307 309 315 315 321 326 326 316 313 313 312 312 312 325 341 339 339
310 313 310 314 310 311 309 308 315 317 318 316 318 316 314 316 316 314 313 317 313 312 313 312 311 311 310 310 310 310 312 314 319 324 319 313 315 314 312 311 312 325 343 341 340
310 314 310 310 312 312 306 311 314 318 317 319 318 315 315 316 315 315 311 313 312 310 312 312 312 310 310 310 311 316 314 315 321 318 312 312 312 314 312 312 312 323 345 347 345
309 312 309 311 313 309 307 313 313 316 317 318 319 317 319 317 317 316 313 312 314 311 307 311 311 312 312 313 314 313 313 314 322 320 317 312 314 315 313 313 313 323 344 338 336
308 309 309 309 310 305 305 309 312 313 316 317 319 314 315 317 317 317 314 313 312 311 307 309 310 313 313 315 314 317 316 318 320 313 315 315 315 312 314 314 315 322 336 337 342
303 304 308 308 305 301 303 308 310 313 314 317 314 313 312 312 317 317 317 315 312 310 310 309 311 316 317 317 314 316 316 317 322 316 313 314 315 326 312 311 323 332 339 341 343
302 303 307 307 304 303 305 308 310 310 311 316 317 313 312 311 316 317 318 315 311 311 312 312 312 317 321 319 316 318 318 316 316 316 319 315 316 318 323 332 334 339 341 340 335
300 303 302 299 301 306 305 307 308 308 310 313 314 317 316 314 312 316 316 317 310 313 315 314 313 320 315 315 318 318 316 316 317 319 321 317 329 326 334 336 338 340 338 333 330
300 303 303 304 304 304 304 306 308 309 309 309 313 314 313 317 314 315 315 314 316 316 316 313 314 317 319 321 318 317 316 315 318 319 324 330 325 324 334 336 336 336 332 330 327
303 304 302 304 303 303 304 306 307 307 308 310 312 311 311 315 317 318 318 318 314 318 315 311 314 320 321 320 320 319 318 318 319 320 328 335 337 331 334 333 333 332 330 328 326
301 303 305 303 303 303 302 306 306 306 306 309 309 310 311 313 313 313 314 315 315 318 315 313 313 319 322 319 319 323 324 321 322 332 334 334 335 334 334 334 332 330 329 326 323
Wind_Speed
21 22 22 21 21 22 21 21 20 20 18 18 18 18 19 20 23 24 6 4 1 1 5 7 0 4 4 3 3 4 1 3 3 4 4 3 6 5 5 6 3 5 1 8 30
22 22 22 22 22 22 22 21 19 19 18 17 17 17 18 19 24 15 6 1 5 3 5 2 3 4 2 3 3 4 4 8 7 6 3 2 2 4 1 2 5 3 5 24 26
23 23 23 23 23 23 22 20 19 18 17 16 14 14 15 16 6 5 8 9 7 9 9 1 1 2 1 0 3 3 5 6 3 2 2 2 6 4 5 3 5 7 7 15 17
24 25 24 25 24 22 22 21 19 17 16 15 11 10 11 6 2 1 2 11 13 2 10 3 1 3 3 4 2 1 3 2 3 2 2 2 6 7 5 7 6 7 10 14 16
26 26 26 25 24 23 22 20 18 16 15 13 9 8 5 2 8 5 8 9 9 6 8 5 5 4 5 3 1 4 2 1 2 6 5 5 7 6 10 15 12 8 9 15 14
26 27 28 26 24 23 22 20 20 19 15 10 6 5 2 6 5 7 8 6 6 5 4 5 5 5 3 2 3 1 1 3 2 5 5 3 5 2 6 9 10 10 15 14 13
27 27 27 25 23 22 22 22 22 18 11 5 2 3 5 12 6 8 13 17 15 5 3 5 6 3 4 2 3 3 1 2 6 5 5 3 10 23 13 12 10 9 10 13 13
28 28 26 23 22 21 21 23 17 15 2 2 3 2 5 9 13 15 11 10 12 11 12 12 6 3 2 2 5 3 2 3 4 11 6 7 23 7 10 10 16 10 8 11 9
29 27 24 21 20 20 21 19 11 8 5 5 2 3 8 8 8 8 7 3 5 8 10 8 6 3 1 3 4 6 1 3 4 11 7 16 2 7 8 8 11 11 9 11 11
29 27 23 19 20 19 18 14 4 4 6 2 1 1 5 4 9 15 2 2 2 3 0 3 4 3 3 4 1 3 3 4 5 7 13 11 12 11 2 8 11 12 9 13 15
29 25 21 18 22 15 15 5 4 3 1 5 3 4 6 12 8 1 2 3 1 4 2 3 4 3 6 5 4 1 2 3 7 8 3 15 7 12 18 4 8 8 11 13 13
28 24 21 19 20 6 6 2 2 3 6 5 8 6 12 6 4 4 6 2 1 3 2 4 3 5 5 4 3 2 3 5 10 11 6 8 10 15 7 5 8 12 13 15 14
26 22 21 19 14 1 5 3 4 1 1 6 4 3 4 6 3 5 6 3 3 2 3 5 5 5 5 4 4 4 5 4 5 10 7 4 5 5 8 6 5 7 14 15 20
31 22 19 20 3 5 3 3 5 2 3 5 1 2 4 5 4 7 10 6 3 9 4 4 5 5 5 3 6 2 4 6 8 5 3 4 4 6 8 9 10 9 13 13 15
31 19 19 17 11 2 1 1 3 2 4 13 1 3 8 1 6 3 6 3 8 6 6 6 5 4 5 5 7 4 6 7 7 6 5 4 1 5 11 6 8 13 15 16 17
28 13 16 11 11 3 2 3 1 5 5 7 3 11 10 6 2 4 6 6 3 4 1 3 1 5 6 6 10 4 4 5 2 2 4 8 5 3 9 14 8 16 17 17 15
21 8 12 13 7 5 2 2 4 5 6 9 9 10 11 4 5 6 4 4 2 4 6 2 7 4 4 2 4 5 3 2 2 4 5 9 2 7 11 8 11 18 19 19 18
16 7 17 10 17 7 2 5 7 3 5 11 10 9 3 5 2 5 5 2 9 1 2 3 5 10 9 7 6 5 7 4 7 6 5 8 7 7 12 9 13 20 20 18 15
13 5 11 23 8 4 5 5 3 3 6 10 11 3 3 1 2 3 4 4 9 13 7 4 4 4 13 7 10 5 6 4 3 4 2 6 7 4 4 8 9 16 16 18 13
11 7 11 18 5 6 5 2 3 4 4 2 5 2 3 5 4 2 2 5 5 14 5 5 3 3 0 3 2 8 8 3 3 4 5 5 4 5 8 16 10 14 16 11 11
6 3 13 14 4 6 3 4 6 8 4 1 3 4 5 5 7 5 4 4 6 9 8 3 3 1 6 5 10 4 4 3 2 3 5 5 5 6 14 21 20 16 14 17 16
7 3 16 15 4 1 2 5 6 6 2 5 2 6 5 4 6 5 4 4 7 9 9 6 3 4 3 5 9 4 5 8 3 2 3 4 5 3 7 10 20 17 17 19 19
3 3 8 8 3 4 6 6 4 4 6 3 3 6 6 3 4 8 6 4 7 8 9 7 2 3 2 3 3 4 5 7 8 4 6 5 5 4 12 14 15 24 20 19 18
3 5 4 4 1 2 4 5 7 5 5 4 6 4 10 4 7 5 5 8 2 4 12 7 4 5 4 3 4 6 9 13 9 4 3 3 5 5 13 20 17 22 22 20 19
4 1 1 5 3 5 3 3 5 5 4 4 4 4 12 6 4 5 6 6 11 13 1 2 4 4 9 3 6 6 12 15 17 20 5 3 6 6 15 22 20 20 22 22 19
2 3 3 4 4 5 3 3 4 4 3 7 4 19 14 6 11 11 14 7 8 2 3 1 3 2 4 2 7 5 13 21 24 21 8 6 6 9 16 17 20 19 23 21 20
4 1 1 4 4 3 3 2 8 7 7 11 11 13 10 10 15 21 13 7 6 4 1 2 2 1 3 6 3 7 15 16 6 5 7 5 7 16 21 21 22 22 22 24 23
Wind_Direction
341 340 336 335 334 331 328 326 322 321 317 318 317 318 319 318 316 315 258 234 302 325 278 301 81 21 173 203 160 134 123 208 130 137 212 276 200 174 225 229 209 216 124 125 147
339 337 336 335 333 331 329 328 324 323 316 314 315 319 322 323 318 287 338 331 7 303 283 307 42 4 121 212 196 160 152 183 199 184 218 257 269 321 203 279 229 205 77 133 144
338 337 335 332 331 328 327 325 323 323 321 314 313 319 325 331 316 257 81 32 333 299 251 342 341 37 115 320 213 184 167 162 192 163 109 244 307 302 316 271 231 217 146 146 147
341 337 333 331 329 327 325 324 323 320 320 320 314 323 321 340 321 113 296 328 356 302 198 161 144 123 148 199 308 281 194 193 269 23 349 278 314 326 267 245 294 305 177 153 163
339 337 334 332 328 327 326 323 322 317 314 309 313 312 339 269 253 314 297 319 345 41 165 153 140 143 173 201 308 172 262 208 273 323 263 221 252 248 264 271 288 302 176 180 181
340 340 337 332 330 328 325 323 321 318 312 300 294 286 234 267 263 313 314 302 326 346 174 153 180 186 171 217 185 129 196 287 273 241 267 182 271 201 244 258 249 268 203 188 187
341 340 337 333 332 328 326 326 322 319 308 292 237 244 243 264 263 284 290 282 280 245 277 232 212 177 154 230 232 264 295 309 210 211 240 163 268 235 250 287 286 293 198 188 163
341 341 335 334 334 338 341 333 345 341 254 161 195 207 257 263 298 297 298 266 242 228 237 253 238 201 194 237 6 354 107 140 250 176 222 169 256 217 212 202 252 252 220 182 168
341 340 337 342 346 345 346 341 2 13 104 139 134 123 267 297 281 331 290 253 186 210 230 249 142 164 81 81 20 9 12 205 270 191 190 195 44 193 203 205 240 251 208 169 149
341 340 342 346 345 342 344 337 23 38 92 107 1 273 281 332 320 308 223 195 251 183 117 102 62 85 41 76 168 57 38 330 234 205 221 237 232 303 150 206 221 252 181 155 156
343 342 342 346 342 338 346 343 7 342 192 206 222 264 298 331 310 220 141 152 148 51 173 12 84 168 186 165 175 60 236 274 284 280 267 239 254 227 261 236 230 209 143 144 139
346 341 336 341 339 338 359 47 247 243 312 245 255 255 272 268 307 316 168 180 71 190 89 18 273 201 176 159 165 202 280 279 288 264 195 277 246 228 250 229 208 166 157 142 141
349 340 330 340 332 302 317 234 264 215 250 294 201 212 256 138 247 264 169 165 194 187 195 168 242 185 193 176 188 196 210 261 262 324 285 282 287 202 224 228 180 180 162 153 153
352 334 326 342 343 321 267 211 246 205 56 331 294 207 163 179 270 227 204 168 177 203 189 228 258 227 231 206 167 255 208 255 255 292 259 6 264 237 193 216 168 156 170 161 160
353 330 323 337 316 304 319 295 175 127 31 320 256 198 312 141 298 267 210 175 181 186 140 238 188 198 217 205 164 222 264 234 243 255 309 302 250 242 158 205 156 172 171 169 168
353 323 325 340 323 333 164 140 150 41 333 335 305 324 326 309 282 301 3 350 203 144 266 236 151 156 199 207 174 197 235 285 237 208 233 241 206 226 170 189 150 177 171 172 177
354 334 339 342 330 346 187 57 30 61 344 319 314 331 324 300 299 346 293 173 199 199 228 204 215 202 166 193 164 153 79 154 189 199 238 221 195 246 208 186 154 166 173 178 179
355 14 15 357 339 310 360 47 56 326 295 298 291 319 296 354 300 318 289 200 205 144 72 225 306 167 186 180 170 176 158 184 161 179 225 160 222 239 196 173 146 161 163 171 168
353 355 13 352 356 359 62 43 229 293 296 304 319 315 290 301 258 334 238 233 207 185 171 192 265 214 184 157 148 175 181 155 326 264 161 184 264 312 136 133 138 143 154 162 156
347 338 13 355 0 17 65 270 249 237 284 336 326 309 300 308 298 224 240 214 189 184 210 207 288 28 327 115 98 164 147 109 215 191 222 222 214 195 161 150 154 149 155 127 127
9 29 355 358 357 46 108 251 286 282 285 166 283 274 267 291 269 269 251 258 191 187 186 216 158 168 84 252 185 157 156 150 274 235 196 141 237 203 178 156 163 158 140 133 135
0 15 355 1 43 54 348 290 271 294 285 245 260 217 242 272 279 281 270 244 180 139 171 216 227 244 199 270 212 179 141 174 198 304 258 135 229 340 184 136 137 140 135 136 139
356 274 1 25 68 324 313 300 280 305 304 280 268 209 204 248 286 266 279 292 162 163 178 175 219 272 196 231 357 186 159 173 274 288 253 131 237 28 114 122 137 134 137 132 123
27 354 333 37 68 122 319 274 316 292 279 286 270 301 337 248 225 287 305 313 242 208 246 164 173 215 225 230 136 177 185 194 222 286 260 220 137 91 129 133 138 137 132 132 132
27 341 182 310 331 335 245 277 302 325 309 306 297 284 318 288 244 222 234 308 297 240 155 137 248 201 246 299 166 182 168 217 248 247 274 242 141 136 154 145 143 134 131 128 127
44 15 341 274 297 316 329 297 300 302 256 288 256 306 305 264 267 268 286 268 221 325 164 198 269 268 198 179 348 94 242 238 242 254 235 127 75 115 136 130 133 141 141 133 132
9 341 305 287 312 356 249 267 285 324 269 243 281 307 297 271 303 289 276 226 166 266 222 179 213 301 322 338 344 211 236 226 212 187 149 132 147 139 146 143 148 150 153 145 139